DW4362 Weather Reports


time (UTC)temp
C
wind
direction
speed
KPH
gust
KPH
rain 1hr
cm
rain 24hr
cm
rain mn
cm
humidity
%
barometer
mb
20240723010045 27 156 0.0 3.2 0.00 3.25 3.20 91 1016.4
20240723004545 27 187 0.0 0.0 0.00 3.25 3.20 88 1016.3
20240723003046 27 187 0.0 3.2 0.00 3.25 3.20 87 1016.1
20240723001545 28 142 0.0 4.8 0.00 3.25 3.20 86 1015.8
20240722234544 28 178 3.2 8.0 0.00 3.25 3.20 84 1015.4
20240722233044 28 157 4.8 12.9 0.00 3.25 3.20 83 1015.2
20240722231544 29 127 0.0 4.8 0.00 3.25 3.20 84 1015.1
20240722230045 29 153 3.2 12.9 0.00 3.25 3.20 83 1014.9
20240722224544 30 191 3.2 12.9 0.00 3.25 3.20 81 1014.9
20240722223044 30 226 0.0 9.7 0.00 3.25 3.20 80 1014.8
20240722221544 30 220 8.0 14.5 0.00 3.25 3.20 77 1014.7
20240722220044 31 140 4.8 12.9 0.00 3.25 3.20 76 1014.5
20240722214544 31 229 0.0 12.9 0.00 3.25 3.20 78 1014.7
20240722211543 31 189 3.2 9.7 0.00 3.25 3.20 77 1014.8
20240722210044 30 165 0.0 8.0 0.00 3.25 3.20 80 1015.1
20240722204543 28 194 0.0 9.7 0.05 3.25 3.20 81 1015.6
20240722201542 26 221 0.0 9.7 0.53 3.25 3.20 91 1016.1
20240722200042 26 143 3.2 8.0 0.56 3.25 3.20 94 1016.5
20240722194542 26 45 0.0 3.2 0.51 3.20 3.15 94 1016.5
20240722193042 26 46 0.0 4.8 0.18 2.87 2.82 92 1016.5
20240722191541 28 153 0.0 3.2 0.03 2.72 2.67 85 1016.8
20240722190041 30 153 3.2 8.0 0.00 2.69 2.64 79 1016.7
20240722184541 29 320 0.0 4.8 0.00 2.69 2.64 82 1016.8
20240722183041 27 167 0.0 4.8 0.00 2.69 2.64 91 1017.2
20240722181540 26 113 0.0 3.2 0.03 2.69 2.64 96 1017.0
20240722180040 25 343 0.0 3.2 0.03 2.69 2.64 98 1016.9
20240722174540 24 343 0.0 3.2 0.03 2.69 2.64 97 1017.3
20240722173040 24 360 0.0 3.2 0.91 2.72 2.64 97 1017.5
20240722170039 23 4 0.0 3.2 2.62 2.74 2.62 96 1017.5
20240722164539 23 349 0.0 8.0 2.62 2.84 2.62 95 1017.7
20240722163039 25 44 0.0 9.7 1.73 2.03 1.73 89 1017.7
20240722160039 31 281 0.0 12.9 0.00 0.41 0.00 70 1017.7
20240722154539 31 168 4.8 9.7 0.00 0.46 0.00 74 1017.5
20240722144538 28 195 0.0 4.8 0.00 0.48 0.00 87 1017.7
20240722143038 28 202 0.0 4.8 0.00 0.48 0.00 89 1017.7
20240722140038 26 156 0.0 3.2 0.00 0.48 0.00 96 1017.7
20240722131537 25 160 0.0 0.0 0.00 0.48 0.00 99 1017.0
20240722130037 24 160 0.0 0.0 0.00 0.48 0.00 99 1016.7
20240722124537 23 160 0.0 0.0 0.00 0.48 0.00 99 1016.8
20240722123036 23 160 0.0 0.0 0.00 0.48 0.00 99 1016.6
20240722121536 23 162 0.0 0.0 0.00 0.48 0.00 99 1016.5
20240722120036 23 162 0.0 0.0 0.00 0.48 0.00 99 1016.2
20240722114537 23 162 0.0 0.0 0.00 0.48 0.00 99 1016.2
20240722113035 22 162 0.0 0.0 0.00 0.48 0.00 99 1016.0
20240722111535 22 162 0.0 0.0 0.00 0.48 0.00 99 1016.0
20240722110035 22 162 0.0 0.0 0.00 0.48 0.00 99 1016.0
20240722104534 22 162 0.0 0.0 0.00 0.48 0.00 99 1016.0
20240722101534 22 162 0.0 0.0 0.00 0.48 0.00 99 1015.8
20240722100034 22 162 0.0 0.0 0.00 0.48 0.00 99 1015.7
20240722094533 22 162 0.0 0.0 0.00 0.48 0.00 99 1015.7
20240722093032 22 162 0.0 0.0 0.00 0.48 0.00 99 1015.8
20240722091532 22 162 0.0 0.0 0.00 0.48 0.00 99 1015.7
20240722090032 22 162 0.0 0.0 0.00 0.48 0.00 99 1015.7
20240722084532 22 162 0.0 0.0 0.00 0.48 0.00 98 1015.6
20240722083031 23 162 0.0 0.0 0.00 0.48 0.00 98 1015.7
20240722081531 23 162 0.0 0.0 0.00 0.48 0.00 98 1015.8
20240722080031 23 162 0.0 0.0 0.00 0.48 0.00 98 1015.8
20240722074530 23 162 0.0 0.0 0.00 0.48 0.00 98 1015.9
20240722071530 23 162 0.0 0.0 0.00 0.48 0.00 98 1016.1
20240722070031 23 162 0.0 0.0 0.00 0.48 0.00 98 1016.3
20240722064529 23 162 0.0 0.0 0.00 0.48 0.00 98 1016.4
20240722063028 23 162 0.0 0.0 0.00 0.48 0.00 98 1016.9
20240722061529 23 162 0.0 0.0 0.00 0.48 0.00 98 1017.1
20240722060029 23 162 0.0 0.0 0.00 0.48 0.00 98 1017.1
20240722054528 23 162 0.0 0.0 0.00 0.48 0.00 98 1017.2